STARLINK-34343 DEB, 69730

Orbit data source: Space-Track

STARLINK-34343 DEB, 69730 is space debris in SSO originally from a launch on Tue, 27 May 2025 UTC launched from the Air Force Western Test Range (AFWTR). Debris objects in space refer to the collection of defunct objects orbiting the Earth. Examples of debris include non-operational satellites, rocket bodies, and fragments generated from explosions, collisions, or faulty payload assembly.

Loading next visibility...
Identifier
69730, 2025-112AB
Orbit
SSO
Country
Flag of USUS
Related business
Manufacturer
SpaceX/Seattle
Mission
Spacecraft
Bus & Motor
Unknown
Mass
Unknown
Launch date (UTC)
2025-05-27 (1 year ago)
Launch vehicle
Unknown
Launch site
Air Force Western Test Range (AFWTR)
Object type
Payload
Rocket body
Debris
Shape & HBR
Unknown shape, 1.1 m
Radar Cross Section
Medium (>0.1 m² and <1 m²)

Expand to show TLE details & history
Last TLE update: 9 hours ago

TLE from 9 hours ago
0 STARLINK-34343 DEB
1 69730U 25112AB  26238.09210763  .00880643  00000-0  12998-1 0  9994
2 69730  97.6068 291.3985 0004178 235.5043 124.5815 15.52708246 21359
Epoch: 2026-08-26T02:12Z
TLE epoch observation values (Epoch: 2026-08-26T02:12:38.099Z)
Latitude
-0°
Longitude
-76.11032°
Altitude
413.562 km
Speed
7.662 km/s
True Right ascension
19h 25m 35s
True Declination
0° 00' 00"
Sunlit
Object was in full shadow at epoch
Visualization orbit readout
Latitude
Unknown
Longitude
Unknown
Altitude
Unknown
Speed
Unknown
Apparent Right ascension
Unknown
Apparent Declination
Unknown
Sunlit
N/A
Visualization observer readout
Local Sidereal Time
02:57:45
Azimuth
Unknown
Elevation
Unknown
Doppler factor
Unknown
Orbital elements
Apogee altitude
408.588 km
Perigee altitude
402.92 km
Semi-major axis
6,783.891 km
Eccentricity
0.00042
Inclination
97.6068°
RAAN
291.3985°
Arg. of periapsis
235.5043°
True anomaly
124.62091°
Mean anomaly
124.5815°
Eccentric anomaly
124.6012°
Mean motion
3.88441 °/min
Orbital period
92.68 mins
BSTAR
0.012998
Loading maneuver chart data...
Computing Atmospheric mass density...
Loading historical data...
Loading historical data...
Loading historical data...
Loading historical data...
Loading historical data...
Loading historical data...
Loading historical data...

Documentation

Showing up to 5 results
|